Year,Month,Day,Hour,Minute,Value (Times are PST for temperature in C)
2015,06,24,00,00,17.90
2015,06,24,00,01,17.90
2015,06,24,00,02,17.80
2015,06,24,00,03,17.80
2015,06,24,00,04,17.80
2015,06,24,00,05,17.80
2015,06,24,00,06,17.80
2015,06,24,00,07,17.70
2015,06,24,00,08,17.70
2015,06,24,00,09,17.70
2015,06,24,00,10,17.70
2015,06,24,00,11,17.70
2015,06,24,00,12,17.70
2015,06,24,00,13,17.70
2015,06,24,00,14,17.70
2015,06,24,00,15,17.70
2015,06,24,00,16,17.70
2015,06,24,00,17,17.70
2015,06,24,00,18,17.70
2015,06,24,00,19,17.70
2015,06,24,00,20,17.70
2015,06,24,00,21,17.70
2015,06,24,00,22,17.70
2015,06,24,00,23,17.70
2015,06,24,00,24,17.80
2015,06,24,00,25,17.80
2015,06,24,00,26,17.80
2015,06,24,00,27,17.80
2015,06,24,00,28,17.80
2015,06,24,00,29,17.80
2015,06,24,00,30,17.80
2015,06,24,00,31,17.80
2015,06,24,00,32,17.80
2015,06,24,00,33,17.80
2015,06,24,00,34,17.80
2015,06,24,00,35,17.80
2015,06,24,00,36,17.80
2015,06,24,00,37,17.80
2015,06,24,00,38,17.80
2015,06,24,00,39,17.80
2015,06,24,00,40,17.80
2015,06,24,00,41,17.80
2015,06,24,00,42,17.80
2015,06,24,00,43,17.80
2015,06,24,00,44,17.80
2015,06,24,00,45,17.80
2015,06,24,00,46,17.80
2015,06,24,00,47,17.80
2015,06,24,00,48,17.80
2015,06,24,00,49,17.80
2015,06,24,00,50,17.80
2015,06,24,00,51,17.80
2015,06,24,00,52,17.80
2015,06,24,00,53,17.80
2015,06,24,00,54,17.80
2015,06,24,00,55,17.80
2015,06,24,00,56,17.80
2015,06,24,00,57,17.80
2015,06,24,00,58,17.70
2015,06,24,00,59,17.70
2015,06,24,01,00,17.70
2015,06,24,01,01,17.70
2015,06,24,01,02,17.70
2015,06,24,01,03,17.70
2015,06,24,01,04,17.60
2015,06,24,01,05,17.60
2015,06,24,01,06,17.60
2015,06,24,01,07,17.60
2015,06,24,01,08,17.60
2015,06,24,01,09,17.50
2015,06,24,01,10,17.50
2015,06,24,01,11,17.50
2015,06,24,01,12,17.50
2015,06,24,01,13,17.50
2015,06,24,01,14,17.40
2015,06,24,01,15,17.40
2015,06,24,01,16,17.40
2015,06,24,01,17,17.40
2015,06,24,01,18,17.40
2015,06,24,01,19,17.30
2015,06,24,01,20,17.30
2015,06,24,01,21,17.30
2015,06,24,01,22,17.30
2015,06,24,01,23,17.30
2015,06,24,01,24,17.30
2015,06,24,01,25,17.30
2015,06,24,01,26,17.30
2015,06,24,01,27,17.30
2015,06,24,01,28,17.20
2015,06,24,01,29,17.20
2015,06,24,01,30,17.20
2015,06,24,01,31,17.10
2015,06,24,01,32,17.00
2015,06,24,01,33,17.00
2015,06,24,01,34,17.00
2015,06,24,01,35,16.90
2015,06,24,01,36,16.90
2015,06,24,01,37,16.90
2015,06,24,01,38,16.90
2015,06,24,01,39,16.90
2015,06,24,01,40,16.80
2015,06,24,01,41,16.80
2015,06,24,01,42,16.80
2015,06,24,01,43,16.80
2015,06,24,01,44,16.80
2015,06,24,01,45,16.80
2015,06,24,01,46,16.70
2015,06,24,01,47,16.70
2015,06,24,01,48,16.70
2015,06,24,01,49,16.70
2015,06,24,01,50,16.70
2015,06,24,01,51,16.70
2015,06,24,01,52,16.70
2015,06,24,01,53,16.70
2015,06,24,01,54,16.70
2015,06,24,01,55,16.70
2015,06,24,01,56,16.70
2015,06,24,01,57,16.70
2015,06,24,01,58,16.70
2015,06,24,01,59,16.70
2015,06,24,02,00,16.70
2015,06,24,02,01,16.70
2015,06,24,02,02,16.70
2015,06,24,02,03,16.70
2015,06,24,02,04,16.70
2015,06,24,02,05,16.70
2015,06,24,02,06,16.70
2015,06,24,02,07,16.70
2015,06,24,02,08,16.70
2015,06,24,02,09,16.70
2015,06,24,02,10,16.70
2015,06,24,02,11,16.70
2015,06,24,02,12,16.70
2015,06,24,02,13,16.70
2015,06,24,02,14,16.70
2015,06,24,02,15,16.70
2015,06,24,02,16,16.70
2015,06,24,02,17,16.70
2015,06,24,02,18,16.70
2015,06,24,02,19,16.70
2015,06,24,02,20,16.70
2015,06,24,02,21,16.70
2015,06,24,02,22,16.70
2015,06,24,02,23,16.70
2015,06,24,02,24,16.70
2015,06,24,02,25,16.70
2015,06,24,02,26,16.70
2015,06,24,02,27,16.70
2015,06,24,02,28,16.70
2015,06,24,02,29,16.70
2015,06,24,02,30,16.70
2015,06,24,02,31,16.70
2015,06,24,02,32,16.70
2015,06,24,02,33,16.70
2015,06,24,02,34,16.70
2015,06,24,02,35,16.70
2015,06,24,02,36,16.70
2015,06,24,02,37,16.70
2015,06,24,02,38,16.70
2015,06,24,02,39,16.70
2015,06,24,02,40,16.70
2015,06,24,02,41,16.70
2015,06,24,02,42,16.70
2015,06,24,02,43,16.70
2015,06,24,02,44,16.70
2015,06,24,02,45,16.70
2015,06,24,02,46,16.70
2015,06,24,02,47,16.70
2015,06,24,02,48,16.70
2015,06,24,02,49,16.70
2015,06,24,02,50,16.70
2015,06,24,02,51,16.60
2015,06,24,02,52,16.60
2015,06,24,02,53,16.60
2015,06,24,02,54,16.60
2015,06,24,02,55,16.60
2015,06,24,02,56,16.60
2015,06,24,02,57,16.60
2015,06,24,02,58,16.60
2015,06,24,02,59,16.60
2015,06,24,03,00,16.60
2015,06,24,03,01,16.60
2015,06,24,03,02,16.60
2015,06,24,03,03,16.60
2015,06,24,03,04,16.60
2015,06,24,03,05,16.60
2015,06,24,03,06,16.60
2015,06,24,03,07,16.60
2015,06,24,03,08,16.50
2015,06,24,03,09,16.40
2015,06,24,03,10,16.40
2015,06,24,03,11,16.40
2015,06,24,03,12,16.40
2015,06,24,03,13,16.40
2015,06,24,03,14,16.40
2015,06,24,03,15,16.40
2015,06,24,03,16,16.40
2015,06,24,03,17,16.40
2015,06,24,03,18,16.30
2015,06,24,03,19,16.30
2015,06,24,03,20,16.30
2015,06,24,03,21,16.20
2015,06,24,03,22,16.20
2015,06,24,03,23,16.20
2015,06,24,03,24,16.20
2015,06,24,03,25,16.20
2015,06,24,03,26,16.10
2015,06,24,03,27,16.10
2015,06,24,03,28,16.10
2015,06,24,03,29,16.10
2015,06,24,03,30,16.10
2015,06,24,03,31,16.10
2015,06,24,03,32,16.10
2015,06,24,03,33,16.10
2015,06,24,03,34,16.10
2015,06,24,03,35,16.10
2015,06,24,03,36,16.10
2015,06,24,03,37,16.00
2015,06,24,03,38,15.90
2015,06,24,03,39,15.90
2015,06,24,03,40,15.90
2015,06,24,03,41,15.90
2015,06,24,03,42,15.90
2015,06,24,03,43,15.90
2015,06,24,03,44,15.90
2015,06,24,03,45,15.90
2015,06,24,03,46,15.90
2015,06,24,03,47,15.80
2015,06,24,03,48,15.80
2015,06,24,03,49,15.80
2015,06,24,03,50,15.80
2015,06,24,03,51,15.80
2015,06,24,03,52,15.80
2015,06,24,03,53,15.80
2015,06,24,03,54,15.80
2015,06,24,03,55,15.80
2015,06,24,03,56,15.80
2015,06,24,03,57,15.80
2015,06,24,03,58,15.80
2015,06,24,03,59,15.80
2015,06,24,04,00,15.80
2015,06,24,04,01,15.80
2015,06,24,04,02,15.80
2015,06,24,04,03,15.80
2015,06,24,04,04,15.80
2015,06,24,04,05,15.80
2015,06,24,04,06,15.80
2015,06,24,04,07,15.80
2015,06,24,04,08,15.70
2015,06,24,04,09,15.70
2015,06,24,04,10,15.70
2015,06,24,04,11,15.70
2015,06,24,04,12,15.70
2015,06,24,04,13,15.60
2015,06,24,04,14,15.60
2015,06,24,04,15,15.60
2015,06,24,04,16,15.60
2015,06,24,04,17,15.60
2015,06,24,04,18,15.60
2015,06,24,04,19,15.50
2015,06,24,04,20,15.50
2015,06,24,04,21,15.50
2015,06,24,04,22,15.50
2015,06,24,04,23,15.50
2015,06,24,04,24,15.50
2015,06,24,04,25,15.50
2015,06,24,04,26,15.50
2015,06,24,04,27,15.50
2015,06,24,04,28,15.50
2015,06,24,04,29,15.50
2015,06,24,04,30,15.50
2015,06,24,04,31,15.50
2015,06,24,04,32,15.50
2015,06,24,04,33,15.50
2015,06,24,04,34,15.40
2015,06,24,04,35,15.40
2015,06,24,04,36,15.40
2015,06,24,04,37,15.40
2015,06,24,04,38,15.40
2015,06,24,04,39,15.40
2015,06,24,04,40,15.40
2015,06,24,04,41,15.40
2015,06,24,04,42,15.40
2015,06,24,04,43,15.40
2015,06,24,04,44,15.40
2015,06,24,04,45,15.40
2015,06,24,04,46,15.40
2015,06,24,04,47,15.30
2015,06,24,04,48,15.30
2015,06,24,04,49,15.30
2015,06,24,04,50,15.30
2015,06,24,04,51,15.30
2015,06,24,04,52,15.30
2015,06,24,04,53,15.30
2015,06,24,04,54,15.30
2015,06,24,04,55,15.30
2015,06,24,04,56,15.30
2015,06,24,04,57,15.30
2015,06,24,04,58,15.30
2015,06,24,04,59,15.30
2015,06,24,05,00,15.30
2015,06,24,05,01,15.30
2015,06,24,05,02,15.30
2015,06,24,05,03,15.30
2015,06,24,05,04,15.30
2015,06,24,05,05,15.30
2015,06,24,05,06,15.30
2015,06,24,05,07,15.30
2015,06,24,05,08,15.30
2015,06,24,05,09,15.30
2015,06,24,05,10,15.30
2015,06,24,05,11,15.30
2015,06,24,05,12,15.30
2015,06,24,05,13,15.30
2015,06,24,05,14,15.20
2015,06,24,05,15,15.20
2015,06,24,05,16,15.20
2015,06,24,05,17,15.20
2015,06,24,05,18,15.20
2015,06,24,05,19,15.20
2015,06,24,05,20,15.20
2015,06,24,05,21,15.20
2015,06,24,05,22,15.20
2015,06,24,05,23,15.20
2015,06,24,05,24,15.10
2015,06,24,05,25,15.10
2015,06,24,05,26,15.10
2015,06,24,05,27,15.10
2015,06,24,05,28,15.10
2015,06,24,05,29,15.10
2015,06,24,05,30,15.10
2015,06,24,05,31,15.10
2015,06,24,05,32,15.10
2015,06,24,05,33,15.10
2015,06,24,05,34,15.20
2015,06,24,05,35,15.20
2015,06,24,05,36,15.20
2015,06,24,05,37,15.20
2015,06,24,05,38,15.20
2015,06,24,05,39,15.20
2015,06,24,05,40,15.20
2015,06,24,05,41,15.10
2015,06,24,05,42,15.10
2015,06,24,05,43,15.10
2015,06,24,05,44,15.10
2015,06,24,05,45,15.10
2015,06,24,05,46,15.10
2015,06,24,05,47,15.10
2015,06,24,05,48,15.10
2015,06,24,05,49,15.00
2015,06,24,05,50,15.00
2015,06,24,05,51,15.00
2015,06,24,05,52,15.00
2015,06,24,05,53,14.90
2015,06,24,05,54,14.90
2015,06,24,05,55,14.90
2015,06,24,05,56,14.90
2015,06,24,05,57,14.80
2015,06,24,05,58,14.80
2015,06,24,05,59,14.80
2015,06,24,06,00,14.80
2015,06,24,06,01,14.80
2015,06,24,06,02,14.70
2015,06,24,06,03,14.70
2015,06,24,06,04,14.60
2015,06,24,06,05,14.60
2015,06,24,06,06,14.60
2015,06,24,06,07,14.60
2015,06,24,06,08,14.60
2015,06,24,06,09,14.50
2015,06,24,06,10,14.50
2015,06,24,06,11,14.50
2015,06,24,06,12,14.50
2015,06,24,06,13,14.50
2015,06,24,06,14,14.40
2015,06,24,06,15,14.40
2015,06,24,06,16,14.40
2015,06,24,06,17,14.40
2015,06,24,06,18,14.40
2015,06,24,06,19,14.40
2015,06,24,06,20,14.40
2015,06,24,06,21,14.50
2015,06,24,06,22,14.50
2015,06,24,06,23,14.50
2015,06,24,06,24,14.50
2015,06,24,06,25,14.50
2015,06,24,06,26,14.50
2015,06,24,06,27,14.50
2015,06,24,06,28,14.50
2015,06,24,06,29,14.50
2015,06,24,06,30,14.50
2015,06,24,06,31,14.60
2015,06,24,06,32,14.60
2015,06,24,06,33,14.60
2015,06,24,06,34,14.60
2015,06,24,06,35,14.60
2015,06,24,06,36,14.60
2015,06,24,06,37,14.60
2015,06,24,06,38,14.60
2015,06,24,06,39,14.60
2015,06,24,06,40,14.60
2015,06,24,06,41,14.60
2015,06,24,06,42,14.50
2015,06,24,06,43,14.50
2015,06,24,06,44,14.50
2015,06,24,06,45,14.50
2015,06,24,06,46,14.50
2015,06,24,06,47,14.50
2015,06,24,06,48,14.50
2015,06,24,06,49,14.50
2015,06,24,06,50,14.50
2015,06,24,06,51,14.50
2015,06,24,06,52,14.50
2015,06,24,06,53,14.40
2015,06,24,06,54,14.40
2015,06,24,06,55,14.40
2015,06,24,06,56,14.30
2015,06,24,06,57,14.30
2015,06,24,06,58,14.20
2015,06,24,06,59,14.20
2015,06,24,07,00,14.20
2015,06,24,07,01,14.20
2015,06,24,07,02,14.20
2015,06,24,07,03,14.10
2015,06,24,07,04,14.10
2015,06,24,07,05,14.10
2015,06,24,07,06,14.10
2015,06,24,07,07,14.10
2015,06,24,07,08,14.10
2015,06,24,07,09,14.20
2015,06,24,07,10,14.20
2015,06,24,07,11,14.20
2015,06,24,07,12,14.30
2015,06,24,07,13,14.30
2015,06,24,07,14,14.40
2015,06,24,07,15,14.40
2015,06,24,07,16,14.40
2015,06,24,07,17,14.40
2015,06,24,07,18,14.40
2015,06,24,07,19,14.50
2015,06,24,07,20,14.50
2015,06,24,07,21,14.60
2015,06,24,07,22,14.60
2015,06,24,07,23,14.70
2015,06,24,07,24,14.80
2015,06,24,07,25,14.80
2015,06,24,07,26,14.80
2015,06,24,07,27,14.90
2015,06,24,07,28,14.90
2015,06,24,07,29,15.00
2015,06,24,07,30,15.10
2015,06,24,07,31,15.10
2015,06,24,07,32,15.20
2015,06,24,07,33,15.20
2015,06,24,07,34,15.30
2015,06,24,07,35,15.30
2015,06,24,07,36,15.30
2015,06,24,07,37,15.30
2015,06,24,07,38,15.30
2015,06,24,07,39,15.40
2015,06,24,07,40,15.40
2015,06,24,07,41,15.40
2015,06,24,07,42,15.50
2015,06,24,07,43,15.50
2015,06,24,07,44,15.60
2015,06,24,07,45,15.60
2015,06,24,07,46,15.70
2015,06,24,07,47,15.80
2015,06,24,07,48,15.80
2015,06,24,07,49,15.90
2015,06,24,07,50,16.00
2015,06,24,07,51,16.10
2015,06,24,07,52,16.10
2015,06,24,07,53,16.10
2015,06,24,07,54,16.10
2015,06,24,07,55,16.10
2015,06,24,07,56,16.10
2015,06,24,07,57,16.10
2015,06,24,07,58,16.10
2015,06,24,07,59,16.10
2015,06,24,08,00,16.10
2015,06,24,08,01,16.20
2015,06,24,08,02,16.20
2015,06,24,08,03,16.30
2015,06,24,08,04,16.30
2015,06,24,08,05,16.40
2015,06,24,08,06,16.50
2015,06,24,08,07,16.60
2015,06,24,08,08,16.70
2015,06,24,08,09,16.80
2015,06,24,08,10,16.90
2015,06,24,08,11,17.00
2015,06,24,08,12,17.10
2015,06,24,08,13,17.10
2015,06,24,08,14,17.10
2015,06,24,08,15,17.10
2015,06,24,08,16,17.10
2015,06,24,08,17,17.10
2015,06,24,08,18,17.10
2015,06,24,08,19,17.10
2015,06,24,08,20,17.00
2015,06,24,08,21,17.00
2015,06,24,08,22,17.10
2015,06,24,08,23,17.10
2015,06,24,08,24,17.10
2015,06,24,08,25,17.20
2015,06,24,08,26,17.20
2015,06,24,08,27,17.30
2015,06,24,08,28,17.40
2015,06,24,08,29,17.50
2015,06,24,08,30,17.50
2015,06,24,08,31,17.50
2015,06,24,08,32,17.50
2015,06,24,08,33,17.60
2015,06,24,08,34,17.50
2015,06,24,08,35,17.50
2015,06,24,08,36,17.50
2015,06,24,08,37,17.40
2015,06,24,08,38,17.40
2015,06,24,08,39,17.30
2015,06,24,08,40,17.30
2015,06,24,08,41,17.30
2015,06,24,08,42,17.40
2015,06,24,08,43,17.40
2015,06,24,08,44,17.50
2015,06,24,08,45,17.50
2015,06,24,08,46,17.60
2015,06,24,08,47,17.70
2015,06,24,08,48,17.70
2015,06,24,08,49,17.80
2015,06,24,08,50,17.90
2015,06,24,08,51,17.90
2015,06,24,08,52,18.00
2015,06,24,08,53,18.10
2015,06,24,08,54,18.10
2015,06,24,08,55,18.20
2015,06,24,08,56,18.20
2015,06,24,08,57,18.20
2015,06,24,08,58,18.30
2015,06,24,08,59,18.20
2015,06,24,09,00,18.20
2015,06,24,09,01,18.20
2015,06,24,09,02,18.20
2015,06,24,09,03,18.10
2015,06,24,09,04,18.10
2015,06,24,09,05,18.00
2015,06,24,09,06,17.90
2015,06,24,09,07,17.90
2015,06,24,09,08,17.90
2015,06,24,09,09,17.90
2015,06,24,09,10,17.80
2015,06,24,09,11,17.60
2015,06,24,09,12,17.60
2015,06,24,09,13,17.50
2015,06,24,09,14,17.50
2015,06,24,09,15,17.40
2015,06,24,09,16,17.40
2015,06,24,09,17,17.30
2015,06,24,09,18,17.30
2015,06,24,09,19,17.10
2015,06,24,09,20,17.00
2015,06,24,09,21,17.00
2015,06,24,09,22,16.90
2015,06,24,09,23,16.90
2015,06,24,09,24,16.90
2015,06,24,09,25,16.90
2015,06,24,09,26,16.80
2015,06,24,09,27,16.80
2015,06,24,09,28,16.80
2015,06,24,09,29,16.80
2015,06,24,09,30,16.70
2015,06,24,09,31,16.70
2015,06,24,09,32,16.70
2015,06,24,09,33,16.70
2015,06,24,09,34,16.80
2015,06,24,09,35,16.80
2015,06,24,09,36,16.90
2015,06,24,09,37,17.00
2015,06,24,09,38,17.10
2015,06,24,09,39,17.20
2015,06,24,09,40,17.30
2015,06,24,09,41,17.40
2015,06,24,09,42,17.40
2015,06,24,09,43,17.50
2015,06,24,09,44,17.50
2015,06,24,09,45,17.60
2015,06,24,09,46,17.70
2015,06,24,09,47,17.70
2015,06,24,09,48,17.80
2015,06,24,09,49,17.90
2015,06,24,09,50,18.00
2015,06,24,09,51,18.10
2015,06,24,09,52,18.20
2015,06,24,09,53,18.20
2015,06,24,09,54,18.40
2015,06,24,09,55,18.50
2015,06,24,09,56,18.60
2015,06,24,09,57,18.70
2015,06,24,09,58,18.80
2015,06,24,09,59,18.90
2015,06,24,10,00,19.00
2015,06,24,10,01,19.10
2015,06,24,10,02,19.20
2015,06,24,10,03,19.30
2015,06,24,10,04,19.40
2015,06,24,10,05,19.50
2015,06,24,10,06,19.60
2015,06,24,10,07,19.70
2015,06,24,10,08,19.80
2015,06,24,10,09,19.90
2015,06,24,10,10,20.00
2015,06,24,10,11,20.10
2015,06,24,10,12,20.20
2015,06,24,10,13,20.20
2015,06,24,10,14,20.30
2015,06,24,10,15,20.30
2015,06,24,10,16,20.40
2015,06,24,10,17,20.40
2015,06,24,10,18,20.40
2015,06,24,10,19,20.30
2015,06,24,10,20,20.30
2015,06,24,10,21,20.20
2015,06,24,10,22,20.20
2015,06,24,10,23,20.20
2015,06,24,10,24,20.00
2015,06,24,10,25,19.90
2015,06,24,10,26,19.80
2015,06,24,10,27,19.70
2015,06,24,10,28,19.60
2015,06,24,10,29,19.50
2015,06,24,10,30,19.50
2015,06,24,10,31,19.40
2015,06,24,10,32,19.30
2015,06,24,10,33,19.20
2015,06,24,10,34,19.10
2015,06,24,10,35,19.10
2015,06,24,10,36,19.10
2015,06,24,10,37,19.10
2015,06,24,10,38,19.00
2015,06,24,10,39,18.90
2015,06,24,10,40,18.90
2015,06,24,10,41,18.90
2015,06,24,10,42,18.90
2015,06,24,10,43,18.90
2015,06,24,10,44,18.90
2015,06,24,10,45,18.90
2015,06,24,10,46,18.90
2015,06,24,10,47,18.90
2015,06,24,10,48,18.90
2015,06,24,10,49,18.90
2015,06,24,10,50,18.90
2015,06,24,10,51,18.90
2015,06,24,10,52,18.90
2015,06,24,10,53,18.90
2015,06,24,10,54,18.90
2015,06,24,10,55,18.90
2015,06,24,10,56,18.90
2015,06,24,10,57,18.90
2015,06,24,10,58,18.90
2015,06,24,10,59,18.90
2015,06,24,11,00,18.90
2015,06,24,11,01,18.90
2015,06,24,11,02,18.90
2015,06,24,11,03,18.90
2015,06,24,11,04,18.90
2015,06,24,11,05,18.80
2015,06,24,11,06,18.80
2015,06,24,11,07,18.80
2015,06,24,11,08,18.70
2015,06,24,11,09,18.70
2015,06,24,11,10,18.70
2015,06,24,11,11,18.70
2015,06,24,11,12,18.70
2015,06,24,11,13,18.70
2015,06,24,11,14,18.70
2015,06,24,11,15,18.80
2015,06,24,11,16,18.80
2015,06,24,11,17,18.80
2015,06,24,11,18,18.90
2015,06,24,11,19,18.90
2015,06,24,11,20,18.90
2015,06,24,11,21,18.90
2015,06,24,11,22,18.90
2015,06,24,11,23,18.90
2015,06,24,11,24,18.90
2015,06,24,11,25,18.90
2015,06,24,11,26,19.00
2015,06,24,11,27,19.10
2015,06,24,11,28,19.10
2015,06,24,11,29,19.20
2015,06,24,11,30,19.30
2015,06,24,11,31,19.40
2015,06,24,11,32,19.40
2015,06,24,11,33,19.50
2015,06,24,11,34,19.60
2015,06,24,11,35,19.60
2015,06,24,11,36,19.70
2015,06,24,11,37,19.80
2015,06,24,11,38,19.90
2015,06,24,11,39,20.00
2015,06,24,11,40,20.20
2015,06,24,11,41,20.30
2015,06,24,11,42,20.40
2015,06,24,11,43,20.50
2015,06,24,11,44,20.60
2015,06,24,11,45,20.70
2015,06,24,11,46,20.80
2015,06,24,11,47,20.90
2015,06,24,11,48,21.00
2015,06,24,11,49,21.00
2015,06,24,11,50,21.10
2015,06,24,11,51,21.10
2015,06,24,11,52,21.20
2015,06,24,11,53,21.20
2015,06,24,11,54,21.20
2015,06,24,11,55,21.20
2015,06,24,11,56,21.30
2015,06,24,11,57,21.30
2015,06,24,11,58,21.30
2015,06,24,11,59,21.30
2015,06,24,12,00,21.30
2015,06,24,12,01,21.30
2015,06,24,12,02,21.30
2015,06,24,12,03,21.40
2015,06,24,12,04,21.40
2015,06,24,12,05,21.40
2015,06,24,12,06,21.40
2015,06,24,12,07,21.40
2015,06,24,12,08,21.40
2015,06,24,12,09,21.40
2015,06,24,12,10,21.40
2015,06,24,12,11,21.40
2015,06,24,12,12,21.40
2015,06,24,12,13,21.40
2015,06,24,12,14,21.40
2015,06,24,12,15,21.40
2015,06,24,12,16,21.30
2015,06,24,12,17,21.30
2015,06,24,12,18,21.30
2015,06,24,12,19,21.40
2015,06,24,12,20,21.40
2015,06,24,12,21,21.40
2015,06,24,12,22,21.40
2015,06,24,12,23,21.40
2015,06,24,12,24,21.40
2015,06,24,12,25,21.40
2015,06,24,12,26,21.40
2015,06,24,12,27,21.40
2015,06,24,12,28,21.40
2015,06,24,12,29,21.40
2015,06,24,12,30,21.40
2015,06,24,12,31,21.30
2015,06,24,12,32,21.30
2015,06,24,12,33,21.30
2015,06,24,12,34,21.30
2015,06,24,12,35,21.30
2015,06,24,12,36,21.30
2015,06,24,12,37,21.30
2015,06,24,12,38,21.30
2015,06,24,12,39,21.30
2015,06,24,12,40,21.30
2015,06,24,12,41,21.30
2015,06,24,12,42,21.30
2015,06,24,12,43,21.40
2015,06,24,12,44,21.40
2015,06,24,12,45,21.40
2015,06,24,12,46,21.50
2015,06,24,12,47,21.60
2015,06,24,12,48,21.60
2015,06,24,12,49,21.60
2015,06,24,12,50,21.60
2015,06,24,12,51,21.60
2015,06,24,12,52,21.50
2015,06,24,12,53,21.40
2015,06,24,12,54,21.40
2015,06,24,12,55,21.40
2015,06,24,12,56,21.40
2015,06,24,12,57,21.30
2015,06,24,12,58,21.30
2015,06,24,12,59,21.30
2015,06,24,13,00,21.30
2015,06,24,13,01,21.30
2015,06,24,13,02,21.30
2015,06,24,13,03,21.30
2015,06,24,13,04,21.30
2015,06,24,13,05,21.30
2015,06,24,13,06,21.30
2015,06,24,13,07,21.30
2015,06,24,13,08,21.20
2015,06,24,13,09,21.10
2015,06,24,13,10,21.10
2015,06,24,13,11,21.00
2015,06,24,13,12,21.00
2015,06,24,13,13,21.00
2015,06,24,13,14,20.90
2015,06,24,13,15,20.90
2015,06,24,13,16,20.90
2015,06,24,13,17,20.90
2015,06,24,13,18,20.90
2015,06,24,13,19,20.80
2015,06,24,13,20,20.80
2015,06,24,13,21,20.80
2015,06,24,13,22,20.80
2015,06,24,13,23,20.80
2015,06,24,13,24,20.80
2015,06,24,13,25,20.80
2015,06,24,13,26,20.90
2015,06,24,13,27,20.80
2015,06,24,13,28,20.80
2015,06,24,13,29,20.80
2015,06,24,13,30,20.80
2015,06,24,13,31,20.80
2015,06,24,13,32,20.80
2015,06,24,13,33,20.80
2015,06,24,13,34,20.80
2015,06,24,13,35,20.90
2015,06,24,13,36,20.90
2015,06,24,13,37,20.90
2015,06,24,13,38,20.90
2015,06,24,13,39,20.90
2015,06,24,13,40,20.90
2015,06,24,13,41,21.00
2015,06,24,13,42,21.00
2015,06,24,13,43,20.90
2015,06,24,13,44,20.90
2015,06,24,13,45,20.90
2015,06,24,13,46,20.90
2015,06,24,13,47,20.90
2015,06,24,13,48,20.90
2015,06,24,13,49,20.90
2015,06,24,13,50,21.00
2015,06,24,13,51,21.00
2015,06,24,13,52,21.00
2015,06,24,13,53,21.00
2015,06,24,13,54,21.00
2015,06,24,13,55,21.00
2015,06,24,13,56,21.10
2015,06,24,13,57,21.10
2015,06,24,13,58,21.20
2015,06,24,13,59,21.30
2015,06,24,14,00,21.30
2015,06,24,14,01,21.30
2015,06,24,14,02,21.40
2015,06,24,14,03,21.60
2015,06,24,14,04,21.60
2015,06,24,14,05,21.70
2015,06,24,14,06,21.80
2015,06,24,14,07,21.80
2015,06,24,14,08,21.90
2015,06,24,14,09,22.00
2015,06,24,14,10,22.00
2015,06,24,14,11,22.00
2015,06,24,14,12,22.00
2015,06,24,14,13,22.10
2015,06,24,14,14,22.10
2015,06,24,14,15,22.10
2015,06,24,14,16,22.10
2015,06,24,14,17,22.10
2015,06,24,14,18,22.10
2015,06,24,14,19,22.20
2015,06,24,14,20,22.20
2015,06,24,14,21,22.20
2015,06,24,14,22,22.20
2015,06,24,14,23,22.30
2015,06,24,14,24,22.30
2015,06,24,14,25,22.30
2015,06,24,14,26,22.30
2015,06,24,14,27,22.30
2015,06,24,14,28,22.30
2015,06,24,14,29,22.30
2015,06,24,14,30,22.30
2015,06,24,14,31,22.40
2015,06,24,14,32,22.40
2015,06,24,14,33,22.40
2015,06,24,14,34,22.50
2015,06,24,14,35,22.50
2015,06,24,14,36,22.50
2015,06,24,14,37,22.60
2015,06,24,14,38,22.60
2015,06,24,14,39,22.60
2015,06,24,14,40,22.60
2015,06,24,14,41,22.70
2015,06,24,14,42,22.70
2015,06,24,14,43,22.70
2015,06,24,14,44,22.80
2015,06,24,14,45,22.80
2015,06,24,14,46,22.90
2015,06,24,14,47,22.90
2015,06,24,14,48,22.90
2015,06,24,14,49,22.90
2015,06,24,14,50,22.90
2015,06,24,14,51,22.80
2015,06,24,14,52,22.70
2015,06,24,14,53,22.60
2015,06,24,14,54,22.60
2015,06,24,14,55,22.50
2015,06,24,14,56,22.50
2015,06,24,14,57,22.50
2015,06,24,14,58,22.50
2015,06,24,14,59,22.50
2015,06,24,15,00,22.50
2015,06,24,15,01,22.50
2015,06,24,15,02,22.60
2015,06,24,15,03,22.60
2015,06,24,15,04,22.60
2015,06,24,15,05,22.70
2015,06,24,15,06,22.70
2015,06,24,15,07,22.70
2015,06,24,15,08,22.80
2015,06,24,15,09,22.80
2015,06,24,15,10,22.80
2015,06,24,15,11,22.90
2015,06,24,15,12,22.90
2015,06,24,15,13,22.90
2015,06,24,15,14,23.10
2015,06,24,15,15,23.10
2015,06,24,15,16,23.20
2015,06,24,15,17,23.20
2015,06,24,15,18,23.20
2015,06,24,15,19,23.20
2015,06,24,15,20,23.30
2015,06,24,15,21,23.30
2015,06,24,15,22,23.30
2015,06,24,15,23,23.30
2015,06,24,15,24,23.30
2015,06,24,15,25,23.20
2015,06,24,15,26,23.20
2015,06,24,15,27,23.10
2015,06,24,15,28,23.10
2015,06,24,15,29,22.90
2015,06,24,15,30,22.90
2015,06,24,15,31,22.90
2015,06,24,15,32,22.80
2015,06,24,15,33,22.80
2015,06,24,15,34,22.80
2015,06,24,15,35,22.80
2015,06,24,15,36,22.80
2015,06,24,15,37,22.90
2015,06,24,15,38,22.90
2015,06,24,15,39,22.90
2015,06,24,15,40,22.90
2015,06,24,15,41,22.90
2015,06,24,15,42,22.90
2015,06,24,15,43,22.90
2015,06,24,15,44,23.00
2015,06,24,15,45,23.10
2015,06,24,15,46,23.10
2015,06,24,15,47,22.90
2015,06,24,15,48,22.90
2015,06,24,15,49,22.90
2015,06,24,15,50,22.90
2015,06,24,15,51,22.90
2015,06,24,15,52,22.90
2015,06,24,15,53,22.90
2015,06,24,15,54,22.90
2015,06,24,15,55,22.90
2015,06,24,15,56,22.90
2015,06,24,15,57,22.90
2015,06,24,15,58,22.90
2015,06,24,15,59,22.90
2015,06,24,16,00,22.90
2015,06,24,16,01,22.90
2015,06,24,16,02,22.90
2015,06,24,16,03,22.90
2015,06,24,16,04,23.10
2015,06,24,16,05,23.10
2015,06,24,16,06,23.20
2015,06,24,16,07,23.20
2015,06,24,16,08,23.30
2015,06,24,16,09,23.40
2015,06,24,16,10,23.50
2015,06,24,16,11,23.60
2015,06,24,16,12,23.60
2015,06,24,16,13,23.70
2015,06,24,16,14,23.60
2015,06,24,16,15,23.60
2015,06,24,16,16,23.50
2015,06,24,16,17,23.40
2015,06,24,16,18,23.40
2015,06,24,16,19,23.40
2015,06,24,16,20,23.50
2015,06,24,16,21,23.60
2015,06,24,16,22,23.60
2015,06,24,16,23,23.60
2015,06,24,16,24,23.70
2015,06,24,16,25,23.70
2015,06,24,16,26,23.70
2015,06,24,16,27,23.70
2015,06,24,16,28,23.70
2015,06,24,16,29,23.80
2015,06,24,16,30,23.80
2015,06,24,16,31,23.80
2015,06,24,16,32,23.80
2015,06,24,16,33,23.90
2015,06,24,16,34,23.90
2015,06,24,16,35,24.00
2015,06,24,16,36,24.10
2015,06,24,16,37,24.10
2015,06,24,16,38,24.10
2015,06,24,16,39,24.20
2015,06,24,16,40,24.30
2015,06,24,16,41,24.40
2015,06,24,16,42,24.40
2015,06,24,16,43,24.40
2015,06,24,16,44,24.40
2015,06,24,16,45,24.40
2015,06,24,16,46,24.40
2015,06,24,16,47,24.40
2015,06,24,16,48,24.40
2015,06,24,16,49,24.40
2015,06,24,16,50,24.40
2015,06,24,16,51,24.40
2015,06,24,16,52,24.40
2015,06,24,16,53,24.30
2015,06,24,16,54,24.30
2015,06,24,16,55,24.20
2015,06,24,16,56,24.10
2015,06,24,16,57,24.10
2015,06,24,16,58,24.10
2015,06,24,16,59,24.10
2015,06,24,17,00,23.90
2015,06,24,17,01,23.90
2015,06,24,17,02,23.90
2015,06,24,17,03,23.90
2015,06,24,17,04,23.90
2015,06,24,17,05,23.90
2015,06,24,17,06,23.90
2015,06,24,17,07,23.80
2015,06,24,17,08,23.80
2015,06,24,17,09,23.80
2015,06,24,17,10,23.80
2015,06,24,17,11,23.80
2015,06,24,17,12,23.80
2015,06,24,17,13,23.80
2015,06,24,17,14,23.90
2015,06,24,17,15,23.90
2015,06,24,17,16,24.00
2015,06,24,17,17,24.00
2015,06,24,17,18,23.90
2015,06,24,17,19,23.90